| time (UTC) | temp F | wind direction | speed knots | gust knots | rain 1hr in | rain 24hr in | rain mn in | humidity % | barometer mb |
| 20260505122526 | 52 | 11 | 0.0 | 0.0 | 0.00 | 0.00 | 0.00 | 95 | 1013.3 |
| 20260505122007 | 52 | 11 | 0.0 | 0.0 | 0.00 | 0.00 | 0.00 | 95 | 1013.3 |
| 20260505121459 | 52 | 11 | 0.0 | 0.0 | 0.00 | 0.00 | 0.00 | 95 | 1013.2 |
| 20260505120942 | 52 | 11 | 0.0 | 0.0 | 0.00 | 0.00 | 0.00 | 95 | 1013.3 |
| 20260505120442 | 52 | 11 | 0.0 | 0.0 | 0.00 | 0.00 | 0.00 | 95 | 1013.3 |
| 20260505115933 | 52 | 11 | 0.0 | 0.0 | 0.00 | 0.00 | 0.00 | 95 | 1013.3 |
| 20260505115434 | 52 | 11 | 0.0 | 0.0 | 0.00 | 0.00 | 0.00 | 95 | 1013.3 |
| 20260505114938 | 52 | 11 | 0.0 | 0.0 | 0.00 | 0.00 | 0.00 | 95 | 1013.2 |
| 20260505114446 | 52 | 11 | 0.0 | 0.0 | 0.00 | 0.00 | 0.00 | 95 | 1013.2 |
| 20260505113952 | 52 | 11 | 0.0 | 0.0 | 0.00 | 0.00 | 0.00 | 95 | 1013.2 |
| 20260505113500 | 52 | 11 | 0.0 | 0.0 | 0.00 | 0.00 | 0.00 | 95 | 1013.2 |
| 20260505112947 | 52 | 11 | 0.0 | 0.0 | 0.00 | 0.00 | 0.00 | 95 | 1013.1 |
| 20260505112431 | 52 | 11 | 0.0 | 0.0 | 0.00 | 0.00 | 0.00 | 95 | 1013.1 |
| 20260505111918 | 52 | 11 | 0.0 | 0.0 | 0.00 | 0.00 | 0.00 | 95 | 1013.1 |
| 20260505111422 | 52 | 11 | 0.0 | 0.0 | 0.00 | 0.00 | 0.00 | 95 | 1013.1 |
| 20260505110908 | 52 | 11 | 0.0 | 0.0 | 0.00 | 0.00 | 0.00 | 95 | 1013.1 |
| 20260505110351 | 52 | 11 | 0.0 | 0.0 | 0.00 | 0.00 | 0.00 | 95 | 1013.0 |
| 20260505101909 | 52 | 11 | 0.0 | 4.3 | 0.00 | 0.00 | 0.00 | 95 | 1012.7 |
| 20260505101351 | 52 | 11 | 0.0 | 0.0 | 0.00 | 0.00 | 0.00 | 95 | 1012.8 |
| 20260505100854 | 52 | 72 | 0.0 | 1.7 | 0.00 | 0.00 | 0.00 | 95 | 1012.8 |
| 20260505100345 | 52 | 73 | 0.0 | 0.0 | 0.00 | 0.00 | 0.00 | 95 | 1012.8 |
| 20260505095853 | 52 | 73 | 0.0 | 0.0 | 0.00 | 0.00 | 0.00 | 95 | 1012.8 |
| 20260505095401 | 52 | 73 | 0.0 | 0.0 | 0.00 | 0.00 | 0.00 | 95 | 1012.8 |
| 20260505094907 | 52 | 73 | 0.0 | 0.0 | 0.00 | 0.00 | 0.00 | 95 | 1012.7 |
| 20260505094138 | 52 | 73 | 0.0 | 0.0 | 0.00 | 0.00 | 0.00 | 95 | 1012.6 |
| 20260505093356 | 52 | 72 | 0.0 | 0.0 | 0.00 | 0.00 | 0.00 | 95 | 1012.5 |
| 20260505092842 | 52 | 73 | 0.0 | 0.0 | 0.00 | 0.00 | 0.00 | 95 | 1012.4 |
| 20260505092346 | 52 | 73 | 0.0 | 2.6 | 0.00 | 0.00 | 0.00 | 95 | 1012.5 |
| 20260505091832 | 52 | 82 | 0.0 | 0.9 | 0.00 | 0.00 | 0.00 | 95 | 1012.4 |
| 20260505091341 | 52 | 82 | 0.0 | 0.0 | 0.00 | 0.00 | 0.00 | 95 | 1012.3 |
| 20260505090824 | 52 | 82 | 0.0 | 0.0 | 0.00 | 0.00 | 0.00 | 96 | 1012.4 |
| 20260505090311 | 52 | 82 | 0.0 | 1.7 | 0.00 | 0.00 | 0.00 | 96 | 1012.3 |
| 20260505085821 | 52 | 82 | 0.0 | 0.0 | 0.00 | 0.00 | 0.00 | 96 | 1012.3 |
| 20260505085314 | 52 | 82 | 0.0 | 2.6 | 0.00 | 0.00 | 0.00 | 96 | 1012.2 |
| 20260505084818 | 52 | 96 | 0.0 | 0.0 | 0.00 | 0.00 | 0.00 | 96 | 1012.1 |
| 20260505084308 | 52 | 96 | 0.0 | 2.6 | 0.00 | 0.00 | 0.00 | 96 | 1012.2 |
| 20260505083755 | 52 | 95 | 0.0 | 1.7 | 0.00 | 0.00 | 0.00 | 96 | 1012.1 |
| 20260505083028 | 52 | 95 | 0.0 | 0.0 | 0.00 | 0.00 | 0.00 | 96 | 1012.1 |
| 20260505082520 | 52 | 95 | 0.0 | 2.6 | 0.00 | 0.00 | 0.00 | 96 | 1012.1 |
| 20260505082021 | 52 | 92 | 0.0 | 0.0 | 0.00 | 0.00 | 0.00 | 96 | 1012.0 |
| 20260505081300 | 52 | 92 | 0.0 | 0.0 | 0.00 | 0.00 | 0.00 | 96 | 1012.0 |
| 20260505080525 | 52 | 92 | 0.0 | 0.9 | 0.00 | 0.00 | 0.00 | 96 | 1011.9 |
| 20260505080015 | 52 | 92 | 0.0 | 0.9 | 0.00 | 0.00 | 0.00 | 96 | 1011.9 |
| 20260505075459 | 52 | 92 | 0.0 | 2.6 | 0.00 | 0.00 | 0.00 | 96 | 1011.8 |
| 20260505074709 | 52 | 57 | 0.0 | 2.6 | 0.00 | 0.00 | 0.00 | 96 | 1011.7 |
| 20260505074208 | 52 | 57 | 0.0 | 4.3 | 0.00 | 0.00 | 0.00 | 96 | 1011.8 |
| 20260505073712 | 52 | 57 | 0.0 | 4.3 | 0.00 | 0.00 | 0.00 | 96 | 1011.7 |
| 20260505073220 | 52 | 53 | 0.0 | 4.3 | 0.00 | 0.00 | 0.00 | 96 | 1011.7 |
| 20260505072722 | 52 | 52 | 0.0 | 4.3 | 0.00 | 0.00 | 0.00 | 96 | 1011.6 |
| 20260505072230 | 52 | 75 | 0.0 | 4.3 | 0.00 | 0.00 | 0.00 | 96 | 1011.6 |
| 20260505071716 | 52 | 111 | 0.0 | 1.7 | 0.00 | 0.00 | 0.00 | 96 | 1011.6 |
| 20260505071226 | 52 | 109 | 0.0 | 7.0 | 0.00 | 0.00 | 0.00 | 95 | 1011.5 |
| 20260505070715 | 52 | 109 | 0.0 | 7.0 | 0.00 | 0.00 | 0.00 | 95 | 1011.5 |
| 20260505070212 | 53 | 81 | 0.0 | 4.3 | 0.00 | 0.00 | 0.00 | 95 | 1011.4 |
| 20260505065712 | 53 | 80 | 0.0 | 4.3 | 0.00 | 0.00 | 0.00 | 95 | 1011.4 |
| 20260505065206 | 53 | 192 | 0.0 | 0.9 | 0.00 | 0.00 | 0.00 | 95 | 1011.3 |
| 20260505064652 | 53 | 191 | 0.9 | 7.0 | 0.00 | 0.00 | 0.00 | 95 | 1011.3 |
| 20260505064154 | 53 | 149 | 0.0 | 3.5 | 0.00 | 0.00 | 0.00 | 94 | 1011.1 |
| 20260505063651 | 53 | 44 | 0.0 | 3.5 | 0.00 | 0.00 | 0.00 | 94 | 1011.2 |
| 20260505063133 | 53 | 61 | 0.0 | 1.7 | 0.00 | 0.00 | 0.00 | 94 | 1011.1 |
| 20260505062633 | 53 | 61 | 0.9 | 4.3 | 0.00 | 0.00 | 0.00 | 94 | 1011.0 |
| 20260505062141 | 53 | 36 | 0.9 | 4.3 | 0.00 | 0.00 | 0.00 | 94 | 1010.9 |
| 20260505061629 | 53 | 29 | 0.9 | 4.3 | 0.00 | 0.00 | 0.00 | 94 | 1011.0 |
| 20260505061122 | 53 | 59 | 0.9 | 3.5 | 0.00 | 0.00 | 0.00 | 94 | 1011.0 |
| 20260505060619 | 53 | 80 | 0.0 | 3.5 | 0.00 | 0.00 | 0.00 | 94 | 1010.8 |
| 20260505055858 | 53 | 55 | 0.0 | 2.6 | 0.00 | 0.00 | 0.00 | 94 | 1010.7 |
| 20260505055136 | 53 | 55 | 0.0 | 2.6 | 0.00 | 0.00 | 0.00 | 93 | 1010.6 |
| 20260505054348 | 53 | 56 | 0.0 | 1.7 | 0.00 | 0.00 | 0.00 | 93 | 1010.6 |
| 20260505053847 | 53 | 56 | 0.0 | 5.2 | 0.00 | 0.00 | 0.00 | 93 | 1010.6 |
| 20260505053342 | 53 | 56 | 0.0 | 1.7 | 0.00 | 0.00 | 0.00 | 93 | 1010.6 |
| 20260505052840 | 53 | 56 | 0.0 | 0.0 | 0.00 | 0.00 | 0.00 | 93 | 1010.5 |
| 20260505052325 | 53 | 56 | 0.0 | 0.0 | 0.00 | 0.00 | 0.00 | 93 | 1010.5 |
| 20260505051551 | 53 | 55 | 0.0 | 2.6 | 0.00 | 0.00 | 0.00 | 93 | 1010.5 |
| 20260505051051 | 53 | 327 | 0.0 | 5.2 | 0.00 | 0.00 | 0.00 | 93 | 1010.5 |
| 20260505050543 | 53 | 348 | 0.0 | 3.5 | 0.00 | 0.00 | 0.00 | 93 | 1010.5 |
| 20260505041544 | 55 | 194 | 0.0 | 3.5 | 0.00 | 0.00 | 0.00 | 90 | 1010.2 |
| 20260505041053 | 55 | 194 | 0.0 | 2.6 | 0.00 | 0.00 | 0.00 | 90 | 1010.1 |
| 20260505040542 | 55 | 194 | 0.0 | 2.6 | 0.00 | 0.00 | 0.00 | 89 | 1010.0 |
| 20260505040044 | 56 | 197 | 0.0 | 1.7 | 0.00 | 0.00 | 0.00 | 89 | 1009.9 |
| 20260505035530 | 56 | 197 | 0.0 | 0.9 | 0.00 | 0.00 | 0.00 | 88 | 1009.9 |
| 20260505034805 | 56 | 197 | 0.0 | 3.5 | 0.00 | 0.00 | 0.00 | 88 | 1009.9 |
| 20260505034314 | 57 | 201 | 0.0 | 3.5 | 0.00 | 0.00 | 0.00 | 87 | 1009.9 |
| 20260505033824 | 57 | 91 | 0.0 | 5.2 | 0.00 | 0.00 | 0.00 | 87 | 1009.7 |
| 20260505033333 | 57 | 92 | 0.9 | 5.2 | 0.00 | 0.00 | 0.00 | 86 | 1009.6 |
| 20260505032824 | 58 | 57 | 0.0 | 5.2 | 0.00 | 0.00 | 0.00 | 85 | 1009.5 |
| 20260505032041 | 58 | 140 | 0.0 | 5.2 | 0.00 | 0.00 | 0.00 | 84 | 1009.4 |
| 20260505031305 | 59 | 140 | 0.0 | 5.2 | 0.00 | 0.00 | 0.00 | 83 | 1009.3 |
| 20260505030754 | 59 | 140 | 0.0 | 5.2 | 0.00 | 0.00 | 0.00 | 82 | 1009.3 |
| 20260505030253 | 60 | 141 | 0.0 | 5.2 | 0.00 | 0.00 | 0.00 | 81 | 1009.3 |
| 20260505025741 | 61 | 140 | 0.0 | 3.5 | 0.00 | 0.00 | 0.00 | 80 | 1009.2 |
| 20260505025225 | 61 | 140 | 0.0 | 3.5 | 0.00 | 0.00 | 0.00 | 80 | 1009.1 |
| 20260505024726 | 61 | 140 | 0.0 | 1.7 | 0.00 | 0.00 | 0.00 | 79 | 1009.0 |
| 20260505024220 | 62 | 140 | 0.0 | 1.7 | 0.00 | 0.00 | 0.00 | 78 | 1009.0 |
| 20260505023702 | 62 | 140 | 0.0 | 1.7 | 0.00 | 0.00 | 0.00 | 77 | 1009.0 |
| 20260505023155 | 63 | 141 | 0.0 | 2.6 | 0.00 | 0.00 | 0.00 | 77 | 1008.9 |
| 20260505022416 | 63 | 141 | 0.0 | 2.6 | 0.00 | 0.00 | 0.00 | 76 | 1008.9 |
| 20260505021858 | 64 | 141 | 0.0 | 2.6 | 0.00 | 0.00 | 0.00 | 75 | 1008.8 |
| 20260505021404 | 64 | 141 | 0.0 | 2.6 | 0.00 | 0.00 | 0.00 | 74 | 1008.6 |
| 20260505020637 | 65 | 141 | 0.0 | 2.6 | 0.00 | 0.00 | 0.00 | 74 | 1008.6 |
| 20260505020141 | 65 | 142 | 0.0 | 0.0 | 0.00 | 0.00 | 0.00 | 73 | 1008.6 |
| 20260505015355 | 66 | 142 | 0.0 | 7.8 | 0.00 | 0.00 | 0.00 | 72 | 1008.6 |
| 20260505014840 | 66 | 142 | 0.0 | 7.8 | 0.00 | 0.00 | 0.00 | 72 | 1008.5 |
| 20260505014342 | 66 | 146 | 1.7 | 7.8 | 0.00 | 0.00 | 0.00 | 72 | 1008.5 |
| 20260505013612 | 67 | 65 | 0.9 | 7.8 | 0.00 | 0.00 | 0.00 | 71 | 1008.6 |
| 20260505013119 | 67 | 98 | 0.9 | 6.1 | 0.00 | 0.00 | 0.00 | 71 | 1008.6 |
| 20260505012625 | 67 | 42 | 0.9 | 6.1 | 0.00 | 0.00 | 0.00 | 70 | 1008.6 |
| 20260505012111 | 68 | 38 | 0.9 | 6.1 | 0.00 | 0.00 | 0.00 | 69 | 1008.6 |
| 20260505011552 | 68 | 17 | 0.9 | 6.1 | 0.00 | 0.00 | 0.00 | 69 | 1008.5 |
| 20260505011045 | 69 | 53 | 0.9 | 6.1 | 0.00 | 0.00 | 0.00 | 67 | 1008.6 |
| 20260505010540 | 70 | 66 | 0.9 | 4.3 | 0.00 | 0.00 | 0.00 | 66 | 1008.6 |
| 20260505010039 | 70 | 67 | 0.0 | 4.3 | 0.00 | 0.00 | 0.00 | 64 | 1008.7 |
| 20260505005548 | 70 | 67 | 0.0 | 4.3 | 0.00 | 0.00 | 0.00 | 65 | 1008.6 |
| 20260505005038 | 71 | 104 | 0.9 | 4.3 | 0.00 | 0.00 | 0.00 | 64 | 1008.6 |
| 20260505004547 | 71 | 293 | 0.9 | 5.2 | 0.00 | 0.00 | 0.00 | 63 | 1008.6 |
| 20260505004039 | 72 | 355 | 0.9 | 5.2 | 0.00 | 0.00 | 0.00 | 63 | 1008.6 |
| 20260505003527 | 73 | 336 | 0.9 | 5.2 | 0.00 | 0.00 | 0.00 | 61 | 1008.6 |
| 20260505003025 | 73 | 83 | 0.0 | 5.2 | 0.00 | 0.00 | 0.00 | 62 | 1008.6 |
| 20260505002305 | 74 | 349 | 0.0 | 5.2 | 0.00 | 0.00 | 0.00 | 61 | 1008.7 |
| 20260505001757 | 74 | 14 | 0.9 | 5.2 | 0.00 | 0.00 | 0.00 | 62 | 1008.6 |
| 20260505001243 | 74 | 267 | 0.0 | 4.3 | 0.00 | 0.00 | 0.00 | 60 | 1008.6 |
| 20260505000737 | 75 | 266 | 0.0 | 4.3 | 0.00 | 0.00 | 0.00 | 60 | 1008.6 |
| 20260505000222 | 75 | 266 | 0.9 | 4.3 | 0.00 | 0.00 | 0.00 | 59 | 1008.6 |
| 20260504235727 | 75 | 266 | 0.0 | 5.2 | 0.00 | 0.00 | 0.00 | 61 | 1008.6 |
| 20260504235229 | 75 | 265 | 0.9 | 5.2 | 0.00 | 0.00 | 0.00 | 60 | 1008.6 |
| 20260504234736 | 75 | 265 | 0.9 | 5.2 | 0.00 | 0.00 | 0.00 | 60 | 1008.6 |
| 20260504234225 | 75 | 262 | 0.9 | 4.3 | 0.00 | 0.00 | 0.00 | 60 | 1008.5 |
| 20260504233455 | 75 | 261 | 0.9 | 5.2 | 0.00 | 0.00 | 0.00 | 62 | 1008.5 |
| 20260504232939 | 75 | 258 | 0.9 | 5.2 | 0.00 | 0.00 | 0.00 | 61 | 1008.5 |
| 20260504232442 | 74 | 256 | 0.9 | 6.1 | 0.00 | 0.00 | 0.00 | 63 | 1008.5 |
| 20260504231924 | 74 | 257 | 1.7 | 6.1 | 0.00 | 0.00 | 0.00 | 65 | 1008.6 |
| 20260504231417 | 73 | 265 | 2.6 | 7.0 | 0.00 | 0.00 | 0.00 | 67 | 1008.6 |
| 20260504230907 | 72 | 259 | 3.5 | 7.0 | 0.00 | 0.00 | 0.00 | 69 | 1008.6 |
| 20260504230356 | 73 | 259 | 0.9 | 7.0 | 0.00 | 0.00 | 0.00 | 67 | 1008.7 |
| 20260504225634 | 72 | 206 | 0.9 | 3.5 | 0.00 | 0.00 | 0.00 | 69 | 1008.7 |
| 20260504225139 | 71 | 205 | 1.7 | 5.2 | 0.00 | 0.00 | 0.00 | 70 | 1008.7 |
| 20260504224648 | 71 | 207 | 1.7 | 6.1 | 0.00 | 0.00 | 0.00 | 70 | 1008.8 |
| 20260504224153 | 72 | 207 | 1.7 | 6.1 | 0.00 | 0.00 | 0.00 | 69 | 1008.9 |
| 20260504223640 | 72 | 250 | 2.6 | 6.1 | 0.00 | 0.00 | 0.00 | 68 | 1009.0 |
| 20260504223136 | 72 | 225 | 1.7 | 6.1 | 0.00 | 0.00 | 0.00 | 68 | 1009.0 |
| 20260504222628 | 72 | 275 | 1.7 | 6.1 | 0.00 | 0.00 | 0.00 | 68 | 1009.1 |
| 20260504222131 | 72 | 282 | 1.7 | 6.1 | 0.00 | 0.00 | 0.00 | 69 | 1009.1 |
| 20260504221633 | 71 | 231 | 1.7 | 6.1 | 0.00 | 0.00 | 0.00 | 69 | 1009.0 |
| 20260504221129 | 71 | 216 | 1.7 | 7.8 | 0.00 | 0.00 | 0.00 | 69 | 1009.2 |
| 20260504220403 | 71 | 259 | 1.7 | 7.8 | 0.00 | 0.00 | 0.00 | 69 | 1009.3 |
| 20260504215909 | 71 | 245 | 1.7 | 7.8 | 0.00 | 0.00 | 0.00 | 70 | 1009.3 |
| 20260504215411 | 70 | 245 | 2.6 | 7.8 | 0.00 | 0.00 | 0.00 | 70 | 1009.3 |
| 20260504214858 | 71 | 224 | 1.7 | 6.1 | 0.00 | 0.00 | 0.00 | 71 | 1009.4 |
| 20260504214404 | 70 | 219 | 2.6 | 6.1 | 0.00 | 0.00 | 0.00 | 71 | 1009.4 |
| 20260504213637 | 70 | 191 | 1.7 | 5.2 | 0.00 | 0.00 | 0.00 | 70 | 1009.5 |
| 20260504213126 | 71 | 182 | 0.9 | 8.7 | 0.00 | 0.00 | 0.00 | 68 | 1009.6 |
| 20260504212611 | 71 | 234 | 1.7 | 8.7 | 0.00 | 0.00 | 0.00 | 69 | 1009.5 |
| 20260504212108 | 70 | 266 | 1.7 | 8.7 | 0.00 | 0.00 | 0.00 | 70 | 1009.5 |
| 20260504211604 | 70 | 252 | 1.7 | 8.7 | 0.00 | 0.00 | 0.00 | 71 | 1009.6 |
| 20260504211114 | 69 | 229 | 3.5 | 7.8 | 0.00 | 0.00 | 0.00 | 73 | 1009.7 |
| 20260504210330 | 69 | 296 | 1.7 | 7.0 | 0.00 | 0.00 | 0.00 | 72 | 1009.8 |
| 20260504205814 | 69 | 81 | 1.7 | 8.7 | 0.00 | 0.00 | 0.00 | 72 | 1009.8 |
| 20260504205042 | 69 | 261 | 2.6 | 8.7 | 0.00 | 0.00 | 0.00 | 70 | 1009.9 |
| 20260504204531 | 69 | 161 | 2.6 | 8.7 | 0.00 | 0.00 | 0.00 | 72 | 1010.0 |
| 20260504204024 | 69 | 209 | 0.9 | 5.2 | 0.00 | 0.00 | 0.00 | 72 | 1009.9 |
| 20260504203302 | 68 | 244 | 0.9 | 5.2 | 0.00 | 0.00 | 0.00 | 74 | 1010.0 |
| 20260504202752 | 68 | 245 | 1.7 | 5.2 | 0.00 | 0.00 | 0.00 | 71 | 1010.1 |
| 20260504202240 | 68 | 253 | 1.7 | 7.0 | 0.00 | 0.00 | 0.00 | 72 | 1010.1 |
| 20260504201737 | 67 | 236 | 2.6 | 7.0 | 0.00 | 0.00 | 0.00 | 73 | 1010.2 |
| 20260504201224 | 67 | 256 | 2.6 | 7.0 | 0.00 | 0.00 | 0.00 | 73 | 1010.2 |
| 20260504200722 | 68 | 184 | 0.9 | 6.1 | 0.00 | 0.00 | 0.00 | 73 | 1010.3 |
| 20260504195951 | 66 | 180 | 0.9 | 8.7 | 0.00 | 0.00 | 0.00 | 76 | 1010.3 |
| 20260504195440 | 66 | 186 | 1.7 | 8.7 | 0.00 | 0.00 | 0.00 | 74 | 1010.4 |
| 20260504194948 | 65 | 180 | 2.6 | 8.7 | 0.00 | 0.00 | 0.00 | 75 | 1010.4 |
| 20260504194458 | 65 | 221 | 2.6 | 8.7 | 0.00 | 0.00 | 0.00 | 75 | 1010.4 |
| 20260504193943 | 66 | 239 | 1.7 | 7.8 | 0.00 | 0.00 | 0.00 | 76 | 1010.4 |
| 20260504193446 | 65 | 215 | 3.5 | 8.7 | 0.00 | 0.00 | 0.00 | 76 | 1010.4 |
| 20260504192945 | 65 | 199 | 3.5 | 8.7 | 0.00 | 0.00 | 0.00 | 75 | 1010.4 |
| 20260504192427 | 65 | 255 | 3.5 | 8.7 | 0.00 | 0.00 | 0.00 | 75 | 1010.5 |
| 20260504191705 | 66 | 202 | 2.6 | 8.7 | 0.00 | 0.00 | 0.00 | 74 | 1010.5 |
| 20260504191213 | 66 | 259 | 2.6 | 7.8 | 0.00 | 0.00 | 0.00 | 75 | 1010.6 |
| 20260504190654 | 65 | 182 | 2.6 | 7.8 | 0.00 | 0.00 | 0.00 | 75 | 1010.6 |
| 20260504190151 | 65 | 227 | 1.7 | 7.0 | 0.00 | 0.00 | 0.00 | 76 | 1010.7 |
| 20260504185631 | 65 | 251 | 1.7 | 7.0 | 0.00 | 0.00 | 0.00 | 78 | 1010.7 |
| 20260504185127 | 64 | 221 | 2.6 | 7.0 | 0.00 | 0.00 | 0.00 | 77 | 1010.7 |
| 20260504184615 | 64 | 245 | 2.6 | 7.0 | 0.00 | 0.00 | 0.00 | 77 | 1010.7 |
| 20260504184110 | 64 | 196 | 1.7 | 7.0 | 0.00 | 0.00 | 0.00 | 77 | 1010.8 |
| 20260504183335 | 64 | 198 | 1.7 | 7.0 | 0.00 | 0.00 | 0.00 | 76 | 1010.7 |
| 20260504182831 | 63 | 225 | 1.7 | 7.0 | 0.00 | 0.00 | 0.00 | 77 | 1010.7 |
| 20260504182054 | 63 | 225 | 2.6 | 7.0 | 0.00 | 0.00 | 0.00 | 78 | 1010.7 |
| 20260504181551 | 63 | 227 | 2.6 | 7.0 | 0.00 | 0.00 | 0.00 | 79 | 1010.7 |
| 20260504181059 | 63 | 226 | 1.7 | 7.0 | 0.00 | 0.00 | 0.00 | 79 | 1010.7 |
| 20260504180602 | 63 | 197 | 1.7 | 7.0 | 0.00 | 0.00 | 0.00 | 80 | 1010.7 |
| 20260504175841 | 62 | 183 | 1.7 | 7.0 | 0.00 | 0.00 | 0.00 | 81 | 1010.7 |
| 20260504175117 | 62 | 188 | 1.7 | 7.0 | 0.00 | 0.00 | 0.00 | 79 | 1010.7 |
| 20260504174352 | 62 | 189 | 1.7 | 7.8 | 0.00 | 0.00 | 0.00 | 81 | 1010.7 |
| 20260504173833 | 62 | 227 | 1.7 | 7.8 | 0.00 | 0.00 | 0.00 | 80 | 1010.7 |
| 20260504173328 | 62 | 263 | 1.7 | 7.8 | 0.00 | 0.00 | 0.00 | 81 | 1010.6 |
| 20260504172833 | 61 | 249 | 0.9 | 7.8 | 0.00 | 0.00 | 0.00 | 80 | 1010.6 |
| 20260504172109 | 61 | 192 | 1.7 | 5.2 | 0.00 | 0.00 | 0.00 | 81 | 1010.7 |
| 20260504171606 | 61 | 223 | 1.7 | 5.2 | 0.00 | 0.00 | 0.00 | 81 | 1010.7 |
| 20260504171059 | 61 | 239 | 1.7 | 5.2 | 0.00 | 0.00 | 0.00 | 81 | 1010.7 |
| 20260504170609 | 61 | 222 | 1.7 | 5.2 | 0.00 | 0.00 | 0.00 | 80 | 1010.7 |
| 20260504170119 | 61 | 221 | 0.9 | 5.2 | 0.00 | 0.00 | 0.00 | 81 | 1010.7 |
| 20260504150721 | 58 | 187 | 0.0 | 1.7 | 0.00 | 0.00 | 0.00 | 83 | 1010.0 |
| 20260504150214 | 57 | 187 | 0.0 | 1.7 | 0.00 | 0.00 | 0.00 | 84 | 1010.0 |
| 20260504140856 | 55 | 178 | 0.0 | 0.0 | 0.00 | 0.00 | 0.00 | 88 | 1009.6 |
| 20260504140340 | 55 | 178 | 0.0 | 1.7 | 0.00 | 0.00 | 0.00 | 88 | 1009.4 |
| 20260504130741 | 56 | 66 | 0.0 | 0.0 | 0.00 | 0.00 | 0.00 | 82 | 1008.5 |
| 20260504130251 | 56 | 66 | 0.0 | 0.0 | 0.00 | 0.00 | 0.00 | 82 | 1008.4 |